STARLINK-5755, 55600

Orbit data source: Space-Track

STARLINK-5755, 55600 is a payload satellite owned by SpaceX/Seattle (US) in LEO that was launched on Sun, 12 Feb 2023 UTC via an FALCON 9 launch vehicle from the Air Force Eastern Test Range (AFETR). Payload-class satellites include a variety of spacecraft equipped with specific instruments for various scientific and technological missions. These include communications satellites like Starlink; space stations such as the ISS; scientific satellites like the Hubble; Earth observation satellites from companies like Planet Labs, Umbra, and HawkEye 360; GPS; miniature CubeSats for education and research; and military/defense satellites.

Loading next visibility...
Identifier
55600, 2023-020AH
Orbit
LEO
Country
Flag of USUS
Related business
Manufacturer
SpaceX/Seattle
Mission
Operational Commercial Communications
Bus & Motor
STARLINK, Unknown motor
Mass
305 kg wet, ~290 kg dry
Launch date (UTC)
2023-02-12 (3 years ago)
Launch vehicle
FALCON 9
Launch site
Air Force Eastern Test Range (AFETR)
Object type
Payload
Rocket body
Debris
Shape & HBR
Box + 1 Pan, 4.4 m
Radar Cross Section
13.562 m², Large (>1 m²)

Expand to show TLE details & history
Last TLE update: 16 hours ago

TLE from 16 hours ago
0 STARLINK-5755
1 55600U 23020AH  25260.23312541  .00000816  00000-0  75448-4 0  9996
2 55600  43.0031 214.4603 0000771 281.7028  78.3728 15.02537935142970
Epoch: 2025-09-17T05:35Z
TLE epoch observation values (Epoch: 2025-09-17T05:35:42.035Z)
Latitude
-0°
Longitude
134.12313°
Altitude
558.744 km
Speed
7.584 km/s
True Right ascension
14h 17m 50s
True Declination
0° 00' 00"
Sunlit
Object was in daylight at epoch
Visualization orbit readout
Latitude
Unknown
Longitude
Unknown
Altitude
Unknown
Speed
Unknown
Apparent Right ascension
Unknown
Apparent Declination
Unknown
Sunlit
N/A
Visualization observer readout
Local Sidereal Time
14:11:02
Azimuth
Unknown
Elevation
Unknown
Doppler factor
Unknown
Orbital elements
Apogee altitude
561.532 km
Perigee altitude
560.462 km
Semi-major axis
6,939.134 km
Eccentricity
0.00008
Inclination
43.0031°
RAAN
214.4603°
Arg. of periapsis
281.7028°
True anomaly
78.38145°
Mean anomaly
78.3728°
Eccentric anomaly
78.37713°
Mean motion
3.75479 °/min
Orbital period
95.88 mins
BSTAR
0.000075448
Loading maneuver chart data...
Computing Atmospheric mass density...
Loading historical data...
Loading historical data...
Loading historical data...
Loading historical data...
Loading historical data...
Loading historical data...
Loading historical data...

Documentation

Showing up to 5 results
|